FW7170 Weather Reports


time (UTC)temp
C
wind
direction
speed
KPH
gust
KPH
rain 1hr
cm
rain 24hr
cm
rain mn
cm
humidity
%
barometer
mb
20260906113213 22 101 0.0 0.0 0.00 0.00 0.00 99 1010.9
20260906112712 22 101 0.0 0.0 0.00 0.00 0.00 99 1010.8
20260906112210 22 101 0.0 0.0 0.00 0.00 0.00 99 1010.8
20260906111709 22 101 0.0 0.0 0.00 0.00 0.00 99 1010.9
20260906111203 22 99 0.0 0.0 0.00 0.00 0.00 99 1011.0
20260906110659 22 98 0.0 0.0 0.00 0.00 0.00 99 1010.9
20260906110154 22 108 0.0 0.0 0.00 0.00 0.00 99 1010.7
20260906105648 22 117 1.6 1.6 0.00 0.00 0.00 99 1010.6
20260906105144 22 103 0.0 0.0 0.00 0.00 0.00 99 1010.5
20260906104643 22 104 0.0 0.0 0.00 0.00 0.00 99 1010.7
20260906104137 22 105 0.0 0.0 0.00 0.00 0.00 99 1010.8
20260906103635 22 107 0.0 0.0 0.00 0.00 0.00 99 1010.6
20260906103130 22 112 0.0 1.6 0.00 0.00 0.00 99 1010.4
20260906102626 22 107 0.0 0.0 0.00 0.00 0.00 99 1010.4
20260906102126 22 102 0.0 0.0 0.00 0.00 0.00 99 1010.5
20260906101626 22 102 0.0 0.0 0.00 0.00 0.00 99 1010.2
20260906101126 22 101 0.0 0.0 0.00 0.00 0.00 99 1010.1
20260906100621 22 103 0.0 0.0 0.00 0.00 0.00 99 1010.2
20260906100121 22 103 0.0 0.0 0.00 0.00 0.00 99 1010.2
20260906095616 22 103 0.0 0.0 0.00 0.00 0.00 99 1010.2
20260906095112 22 105 0.0 0.0 0.00 0.00 0.00 99 1010.3
20260906094610 22 106 0.0 0.0 0.00 0.00 0.00 99 1010.1
20260906094106 23 106 0.0 0.0 0.00 0.00 0.00 99 1010.1
20260906093602 23 113 0.0 0.0 0.00 0.00 0.00 99 1010.1
20260906093057 23 119 1.6 1.6 0.00 0.00 0.00 99 1010.1
20260906092552 22 120 1.6 1.6 0.00 0.00 0.00 99 1009.8
20260906092047 22 101 0.0 0.0 0.00 0.00 0.00 99 1009.7
20260906091543 23 100 0.0 0.0 0.00 0.00 0.00 99 1009.9
20260906091039 23 106 0.0 0.0 0.00 0.00 0.00 99 1009.8
20260906090534 23 101 0.0 0.0 0.00 0.00 0.00 99 1009.7
20260906090028 23 101 0.0 0.0 0.00 0.00 0.00 99 1009.8
20260906085527 23 103 0.0 0.0 0.00 0.00 0.00 99 1009.7
20260906085027 23 106 0.0 0.0 0.00 0.00 0.00 99 1009.6
20260906084522 23 101 0.0 0.0 0.00 0.00 0.00 99 1009.6
20260906084020 23 103 0.0 0.0 0.00 0.00 0.00 99 1009.7
20260906083516 23 103 0.0 0.0 0.00 0.00 0.00 99 1009.9
20260906083016 23 103 0.0 0.0 0.00 0.00 0.00 99 1009.7
20260906082511 23 100 0.0 0.0 0.00 0.00 0.00 99 1010.0
20260906082007 23 99 0.0 0.0 0.00 0.00 0.00 99 1010.1
20260906081502 23 106 0.0 0.0 0.00 0.00 0.00 99 1009.7
20260906080958 23 105 0.0 0.0 0.00 0.00 0.00 99 1009.9
20260906080454 23 104 0.0 0.0 0.00 0.00 0.00 99 1009.7
20260906075949 23 104 0.0 0.0 0.00 0.00 0.00 98 1009.9
20260906075444 23 104 0.0 0.0 0.00 0.00 0.00 98 1010.1
20260906074939 23 103 0.0 0.0 0.00 0.00 0.00 98 1010.1
20260906074439 23 103 0.0 1.6 0.00 0.00 0.00 98 1009.8
20260906073937 23 101 0.0 0.0 0.00 0.00 0.00 98 1010.3
20260906073432 23 103 0.0 0.0 0.00 0.00 0.00 98 1010.2
20260906072929 23 103 0.0 0.0 0.00 0.00 0.00 98 1010.0
20260906072424 23 103 0.0 0.0 0.00 0.00 0.00 98 1010.2
20260906071920 23 103 0.0 0.0 0.00 0.00 0.00 98 1010.3
20260906071415 23 103 0.0 0.0 0.00 0.00 0.00 98 1010.3
20260906070911 23 103 0.0 0.0 0.00 0.00 0.00 97 1010.4
20260906070407 23 104 0.0 0.0 0.00 0.00 0.00 97 1010.4
20260906065902 23 104 0.0 0.0 0.00 0.00 0.00 97 1010.6
20260906065356 23 104 0.0 0.0 0.00 0.00 0.00 97 1010.7
20260906064853 23 104 0.0 0.0 0.00 0.00 0.00 97 1010.6
20260906064349 23 103 0.0 0.0 0.00 0.00 0.00 97 1010.6
20260906063848 23 104 0.0 0.0 0.00 0.00 0.00 97 1010.5
20260906063344 24 106 0.0 0.0 0.00 0.00 0.00 96 1010.6
20260906062839 24 111 0.0 0.0 0.00 0.00 0.00 96 1010.6
20260906062338 23 107 0.0 0.0 0.00 0.00 0.00 95 1010.3
20260906061833 24 107 0.0 0.0 0.00 0.00 0.00 94 1010.5
20260906061329 24 108 0.0 0.0 0.00 0.00 0.00 94 1010.7
20260906060824 24 120 1.6 1.6 0.00 0.00 0.00 94 1011.0
20260906060322 24 103 0.0 0.0 0.00 0.00 0.00 93 1011.0
20260906055818 24 102 0.0 0.0 0.00 0.00 0.00 93 1010.9
20260906055313 24 102 0.0 0.0 0.00 0.00 0.00 93 1010.8
20260906054809 24 102 0.0 0.0 0.00 0.00 0.00 93 1010.7
20260906054304 24 107 0.0 0.0 0.00 0.00 0.00 94 1010.6
20260906053800 24 103 0.0 0.0 0.00 0.00 0.00 93 1010.9
20260906053256 24 103 0.0 0.0 0.00 0.00 0.00 93 1010.6
20260906052750 24 103 0.0 0.0 0.00 0.00 0.00 93 1010.6
20260906052246 25 106 0.0 0.0 0.00 0.00 0.00 93 1010.8
20260906051743 25 103 0.0 0.0 0.00 0.00 0.00 93 1010.6
20260906051243 25 100 0.0 0.0 0.00 0.00 0.00 93 1010.9
20260906050738 25 116 1.6 1.6 0.00 0.00 0.00 92 1011.1
20260906050233 25 102 0.0 0.0 0.00 0.00 0.00 91 1011.1
20260906045731 25 106 0.0 0.0 0.00 0.00 0.00 91 1011.2
20260906045221 25 119 1.6 1.6 0.00 0.00 0.00 90 1011.1
20260906044717 25 107 0.0 0.0 0.00 0.00 0.00 90 1011.4
20260906044212 25 102 1.6 1.6 0.00 0.00 0.00 90 1011.2
20260906043708 25 126 1.6 1.6 0.00 0.00 0.00 90 1011.4
20260906043204 26 102 0.0 0.0 0.00 0.00 0.00 89 1011.4
20260906042703 26 124 1.6 1.6 0.00 0.00 0.00 89 1011.5
20260906042203 26 100 1.6 1.6 0.00 0.00 0.00 88 1011.2
20260906041659 26 101 1.6 1.6 0.00 0.00 0.00 88 1011.5
20260906041153 26 100 0.0 0.0 0.00 0.00 0.00 87 1011.4
20260906040649 26 107 0.0 0.0 0.00 0.00 0.00 88 1011.5
20260906040144 26 104 0.0 0.0 0.00 0.00 0.00 91 1011.5
20260906035645 26 103 0.0 0.0 0.00 0.00 0.00 91 1011.4
20260906035140 26 104 0.0 0.0 0.00 0.00 0.00 90 1011.4
20260906034635 27 69 4.8 4.8 0.00 0.00 0.00 91 1011.4
20260906034129 27 97 1.6 1.6 0.00 0.00 0.00 93 1011.1
20260906033625 27 103 3.2 4.8 0.00 0.00 0.00 94 1011.2
20260906033120 27 103 0.0 0.0 0.00 0.00 0.00 94 1010.9
20260906032617 27 103 1.6 1.6 0.00 0.00 0.00 95 1011.0
20260906032116 27 108 1.6 1.6 0.00 0.00 0.00 94 1011.2
20260906031612 27 101 0.0 0.0 0.00 0.00 0.00 95 1011.2
20260906031108 27 107 0.0 0.0 0.00 0.00 0.00 95 1011.2
20260906030606 27 108 0.0 0.0 0.00 0.00 0.00 95 1011.1
20260906030101 28 64 1.6 3.2 0.00 0.00 0.00 95 1011.4
20260906025556 27 104 0.0 0.0 0.00 0.00 0.00 95 1011.2
20260906025054 27 102 0.0 1.6 0.00 0.00 0.00 96 1011.2
20260906024549 28 101 1.6 1.6 0.00 0.00 0.00 96 1010.8
20260906024049 28 118 1.6 1.6 0.00 0.00 0.00 96 1010.9
20260906023546 28 110 0.0 0.0 0.00 0.00 0.00 96 1010.9
20260906023040 28 113 0.0 1.6 0.00 0.00 0.00 96 1010.6
20260906022536 28 111 0.0 0.0 0.00 0.00 0.00 96 1010.5
20260906022031 28 123 1.6 1.6 0.00 0.00 0.00 96 1010.7
20260906021527 28 103 0.0 0.0 0.00 0.00 0.00 96 1010.7
20260906021025 28 118 1.6 1.6 0.00 0.00 0.00 96 1010.5
20260906020525 28 112 1.6 1.6 0.00 0.00 0.00 95 1010.5
20260906020025 28 121 1.6 1.6 0.00 0.00 0.00 95 1009.9
20260906015524 28 124 1.6 1.6 0.00 0.00 0.00 95 1010.2
20260906015023 28 125 1.6 1.6 0.00 0.00 0.00 94 1010.5
20260906014518 28 90 1.6 1.6 0.00 0.00 0.00 95 1010.3
20260906014014 28 95 0.0 1.6 0.00 0.00 0.00 95 1009.7
20260906013509 28 92 1.6 1.6 0.00 0.00 0.00 95 1009.3
20260906013005 28 112 1.6 1.6 0.00 0.00 0.00 95 1008.8
20260906012501 28 125 1.6 1.6 0.00 0.00 0.00 95 1008.9
20260906011959 28 155 3.2 3.2 0.00 0.00 0.00 94 1008.8
20260906011456 28 112 0.0 1.6 0.00 0.00 0.00 94 1009.4
20260906010950 28 119 1.6 1.6 0.00 0.00 0.00 94 1010.0
20260906010446 28 115 1.6 1.6 0.00 0.00 0.00 93 1010.0
20260906005943 28 113 0.0 0.0 0.00 0.00 0.00 93 1010.5
20260906005441 29 116 0.0 1.6 0.00 0.00 0.00 93 1010.5
20260906004940 29 115 0.0 1.6 0.00 0.00 0.00 93 1010.5
20260906004434 29 152 3.2 3.2 0.00 0.00 0.00 92 1010.7
20260906003925 29 108 1.6 1.6 0.00 0.00 0.00 92 1011.1
20260906003419 29 91 3.2 3.2 0.00 0.00 0.00 91 1011.0
20260906002914 29 107 1.6 1.6 0.00 0.00 0.00 91 1010.8
20260906002414 29 122 1.6 1.6 0.00 0.00 0.00 91 1010.7
20260906001915 29 158 3.2 3.2 0.00 0.00 0.00 90 1010.6
20260906001410 30 118 0.0 1.6 0.00 0.00 0.00 90 1010.8
20260906000910 30 122 1.6 3.2 0.00 0.00 0.00 90 1010.6
20260906000406 30 124 1.6 1.6 0.00 0.00 0.00 90 1010.8
20260905235900 30 116 0.0 0.0 0.00 0.00 0.00 90 1010.9
20260905235354 30 115 1.6 1.6 0.00 0.00 0.00 89 1010.9
20260905234844 30 121 0.0 1.6 0.00 0.00 0.00 89 1010.8
20260905234340 30 115 0.0 1.6 0.00 0.00 0.00 88 1011.0
20260905233835 30 132 1.6 3.2 0.00 0.00 0.00 88 1010.5
20260905233330 30 116 1.6 1.6 0.00 0.00 0.00 88 1010.7
20260905232829 30 116 1.6 1.6 0.00 0.00 0.00 87 1010.7
20260905232325 30 118 1.6 1.6 0.00 0.00 0.00 87 1010.8
20260905231821 30 118 0.0 1.6 0.00 0.00 0.00 87 1010.7
20260905231315 30 115 1.6 1.6 0.00 0.00 0.00 87 1010.8
20260905230812 31 115 0.0 1.6 0.00 0.00 0.00 86 1010.5
20260905230310 31 121 1.6 1.6 0.00 0.00 0.00 86 1010.6
20260905225809 31 113 1.6 1.6 0.00 0.00 0.00 85 1010.5
20260905225306 31 126 1.6 3.2 0.00 0.00 0.00 85 1010.3
20260905224803 31 124 1.6 1.6 0.00 0.00 0.00 85 1010.4
20260905224259 32 150 3.2 3.2 0.00 0.00 0.00 83 1010.5
20260905223754 32 109 0.0 1.6 0.00 0.00 0.00 83 1010.4
20260905223252 32 124 1.6 1.6 0.00 0.00 0.00 81 1010.4
20260905222747 32 121 1.6 1.6 0.00 0.00 0.00 82 1010.2
20260905222246 32 117 1.6 1.6 0.00 0.00 0.00 81 1010.2
20260905221742 33 123 1.6 1.6 0.00 0.00 0.00 80 1010.0
20260905221239 33 115 1.6 1.6 0.00 0.00 0.00 79 1010.1
20260905220734 33 134 1.6 3.2 0.00 0.00 0.00 77 1010.1
20260905220230 33 122 1.6 1.6 0.00 0.00 0.00 77 1009.9
20260905215730 33 155 3.2 3.2 0.00 0.00 0.00 78 1010.1
20260905215226 32 95 1.6 3.2 0.00 0.00 0.00 81 1010.2
20260905214721 32 109 1.6 3.2 0.00 0.00 0.00 82 1010.0
20260905214216 32 112 0.0 0.0 0.00 0.00 0.00 82 1010.0
20260905213712 32 117 1.6 3.2 0.00 0.00 0.00 81 1009.9
20260905213208 33 113 1.6 1.6 0.00 0.00 0.00 77 1010.0
20260905212703 33 120 1.6 3.2 0.00 0.00 0.00 77 1009.9
20260905212202 33 114 0.0 0.0 0.00 0.00 0.00 78 1009.7
20260905211656 33 102 0.0 1.6 0.00 0.00 0.00 76 1009.8
20260905211152 35 72 3.2 8.0 0.00 0.00 0.00 69 1009.6
20260905210649 35 100 0.0 1.6 0.00 0.00 0.00 62 1009.7
20260905210148 33 134 3.2 3.2 0.00 0.00 0.00 70 1009.6
20260905205647 35 113 1.6 1.6 0.00 0.00 0.00 68 1009.6
20260905205142 35 116 0.0 0.0 0.00 0.00 0.00 62 1009.6
20260905204641 34 116 1.6 1.6 0.00 0.00 0.00 69 1009.4
20260905204136 34 148 3.2 3.2 0.00 0.00 0.00 68 1009.6
20260905203631 35 88 4.8 4.8 0.00 0.00 0.00 67 1009.4
20260905203126 35 258 3.2 3.2 0.00 0.00 0.00 63 1009.4
20260905202622 35 100 1.6 1.6 0.00 0.00 0.00 63 1009.6
20260905202117 35 164 3.2 3.2 0.00 0.00 0.00 63 1009.5
20260905201613 34 22 8.0 9.7 0.00 0.00 0.00 67 1009.4
20260905201112 35 165 3.2 4.8 0.00 0.00 0.00 65 1009.2
20260905200608 34 109 3.2 3.2 0.00 0.00 0.00 65 1009.7
20260905195556 35 102 0.0 1.6 0.00 0.00 0.00 65 1009.5
20260905195051 35 258 6.4 8.0 0.00 0.00 0.00 65 1009.7
20260905194551 35 93 1.6 3.2 0.00 0.00 0.00 67 1009.7
20260905194049 34 135 1.6 1.6 0.00 0.00 0.00 66 1009.9
20260905193539 35 134 4.8 4.8 0.00 0.00 0.00 70 1009.9
20260905193035 35 56 4.8 4.8 0.00 0.00 0.00 69 1009.9
20260905192529 34 126 1.6 3.2 0.00 0.00 0.00 68 1010.1
20260905192026 35 73 3.2 3.2 0.00 0.00 0.00 69 1010.2
20260905191525 34 127 1.6 1.6 0.00 0.00 0.00 67 1010.3
20260905191024 33 93 1.6 1.6 0.00 0.00 0.00 73 1010.4
20260905190522 33 141 3.2 3.2 0.00 0.00 0.00 69 1010.4
20260905190022 33 141 3.2 3.2 0.00 0.00 0.00 71 1010.6
20260905185516 33 152 1.6 1.6 0.00 0.00 0.00 69 1010.9
20260905185015 34 89 1.6 1.6 0.00 0.00 0.00 69 1010.8
20260905184510 35 173 1.6 1.6 0.00 0.00 0.00 67 1010.9
20260905184008 34 126 1.6 1.6 0.00 0.00 0.00 73 1011.2
20260905183508 34 85 3.2 3.2 0.00 0.00 0.00 73 1011.0
20260905183004 33 168 1.6 1.6 0.00 0.00 0.00 71 1011.2
20260905182502 33 92 1.6 3.2 0.00 0.00 0.00 71 1011.1
20260905181957 33 120 1.6 1.6 0.00 0.00 0.00 70 1011.5
20260905181452 33 30 4.8 8.0 0.00 0.00 0.00 73 1011.6
20260905180951 34 73 0.0 1.6 0.00 0.00 0.00 70 1011.4
20260905180446 33 99 1.6 3.2 0.00 0.00 0.00 75 1011.7
20260905175941 33 4 4.8 8.0 0.00 0.00 0.00 73 1011.6
20260905175441 33 13 1.6 3.2 0.00 0.00 0.00 73 1011.6
20260905174937 33 95 1.6 3.2 0.00 0.00 0.00 75 1011.8
20260905174432 33 93 1.6 1.6 0.00 0.00 0.00 72 1012.0
20260905173927 33 137 3.2 3.2 0.00 0.00 0.00 72 1011.8
20260905173424 33 121 0.0 1.6 0.00 0.00 0.00 71 1011.7
20260905172919 33 80 1.6 3.2 0.00 0.00 0.00 72 1012.0
20260905172416 33 116 1.6 1.6 0.00 0.00 0.00 76 1012.5
20260905171913 32 131 3.2 3.2 0.00 0.00 0.00 74 1012.2
20260905171409 32 135 1.6 1.6 0.00 0.00 0.00 75 1012.3
20260905170905 32 334 3.2 3.2 0.00 0.00 0.00 73 1012.3
20260905170401 32 162 1.6 1.6 0.00 0.00 0.00 73 1012.2
20260905165900 32 101 1.6 1.6 0.00 0.00 0.00 75 1012.2
20260905165355 32 117 4.8 4.8 0.00 0.00 0.00 77 1012.3
20260905164850 33 121 1.6 1.6 0.00 0.00 0.00 75 1012.6
20260905164345 32 90 0.0 1.6 0.00 0.00 0.00 73 1012.6
20260905163840 32 108 0.0 1.6 0.00 0.00 0.00 78 1012.7
20260905163336 32 148 1.6 1.6 0.00 0.00 0.00 75 1012.8
20260905162833 31 111 1.6 3.2 0.00 0.00 0.00 77 1013.0
20260905162332 32 88 3.2 4.8 0.00 0.00 0.00 77 1013.1
20260905161827 33 126 4.8 8.0 0.00 0.00 0.00 76 1013.3
20260905161326 32 112 0.0 1.6 0.00 0.00 0.00 77 1013.2
20260905160824 32 68 3.2 3.2 0.00 0.00 0.00 77 1013.2
20260905160319 32 108 0.0 1.6 0.00 0.00 0.00 80 1013.5
20260905155814 31 104 3.2 3.2 0.00 0.00 0.00 79 1013.7
20260905155313 32 90 1.6 1.6 0.00 0.00 0.00 77 1013.8
20260905154807 32 139 1.6 3.2 0.00 0.00 0.00 79 1013.5
20260905154303 31 94 1.6 1.6 0.00 0.00 0.00 79 1013.7
20260905153758 31 78 4.8 4.8 0.00 0.00 0.00 79 1013.8
20260905153254 31 117 1.6 1.6 0.00 0.00 0.00 82 1014.0
20260905152748 31 97 3.2 3.2 0.00 0.00 0.00 83 1013.5
20260905152242 31 90 4.8 4.8 0.00 0.00 0.00 82 1013.7
20260905151742 30 45 3.2 4.8 0.00 0.00 0.00 81 1013.7
20260905151238 32 104 1.6 1.6 0.00 0.00 0.00 79 1013.9
20260905150738 31 110 1.6 3.2 0.00 0.00 0.00 80 1013.9
20260905150237 30 129 1.6 1.6 0.00 0.00 0.00 85 1013.8
20260905145735 30 143 3.2 4.8 0.00 0.00 0.00 83 1014.0
20260905145230 30 91 1.6 1.6 0.00 0.00 0.00 86 1013.8
20260905144729 30 26 3.2 3.2 0.00 0.00 0.00 84 1014.1
20260905144224 30 115 0.0 0.0 0.00 0.00 0.00 85 1014.0
20260905143724 30 93 1.6 1.6 0.00 0.00 0.00 86 1013.9
20260905143223 30 79 4.8 4.8 0.00 0.00 0.00 86 1014.1
20260905142721 30 55 4.8 8.0 0.00 0.00 0.00 86 1013.8
20260905142216 30 210 4.8 4.8 0.00 0.00 0.00 87 1013.9
20260905141712 30 99 0.0 1.6 0.00 0.00 0.00 85 1013.7
20260905141208 30 121 1.6 1.6 0.00 0.00 0.00 85 1013.9
20260905140703 30 92 0.0 1.6 0.00 0.00 0.00 87 1014.0
20260905140157 30 96 1.6 1.6 0.00 0.00 0.00 87 1013.9
20260905135652 30 79 3.2 3.2 0.00 0.00 0.00 88 1014.0
20260905135148 30 77 4.8 8.0 0.00 0.00 0.00 88 1014.0
20260905134647 29 119 1.6 1.6 0.00 0.00 0.00 90 1013.8
20260905134146 29 81 1.6 3.2 0.00 0.00 0.00 90 1013.7
20260905133642 29 70 3.2 4.8 0.00 0.00 0.00 91 1014.1
20260905133142 28 81 1.6 3.2 0.00 0.00 0.00 91 1014.1
20260905132641 28 105 1.6 1.6 0.00 0.00 0.00 92 1014.3
20260905132136 28 84 3.2 3.2 0.00 0.00 0.00 93 1013.9
20260905131632 28 125 1.6 3.2 0.00 0.00 0.00 93 1014.1
20260905131126 28 99 1.6 1.6 0.00 0.00 0.00 94 1014.0
20260905130627 28 79 1.6 3.2 0.00 0.00 0.00 93 1014.2
20260905130127 28 98 1.6 1.6 0.00 0.00 0.00 94 1014.1
20260905125626 28 114 1.6 1.6 0.00 0.00 0.00 94 1014.2
20260905125123 28 109 0.0 1.6 0.00 0.00 0.00 95 1014.2
20260905124619 27 122 1.6 1.6 0.00 0.00 0.00 96 1014.0
20260905124115 27 92 1.6 3.2 0.00 0.00 0.00 97 1014.1
20260905123609 27 103 0.0 0.0 0.00 0.00 0.00 98 1014.1
20260905123106 27 103 1.6 3.2 0.00 0.00 0.00 99 1013.9
20260905122601 27 111 0.0 1.6 0.00 0.00 0.00 99 1014.0
20260905122101 26 105 0.0 1.6 0.00 0.00 0.00 99 1013.9
20260905121555 26 149 1.6 1.6 0.00 0.00 0.00 99 1014.0
20260905121051 26 109 0.0 0.0 0.00 0.00 0.00 99 1014.0
20260905120550 26 98 1.6 3.2 0.00 0.00 0.00 99 1014.0
20260905120045 26 104 0.0 0.0 0.00 0.00 0.00 99 1014.0
20260905115544 26 103 0.0 0.0 0.00 0.00 0.00 99 1014.0
20260905115039 25 108 0.0 0.0 0.00 0.00 0.00 99 1014.0
20260905114538 25 109 0.0 0.0 0.00 0.00 0.00 99 1013.8
20260905114037 25 105 0.0 0.0 0.00 0.00 0.00 99 1013.7
20260905113532 25 105 0.0 0.0 0.00 0.00 0.00 99 1013.6